Regional Weather Roundup
Issued by NWS Green Bay, WI

Home | Current Version | Previous Version | Text Only | Print | Product List | Glossary On
Versions: 1 2 3 4 5 6 7 8 9 10 11 12 13 14 15 16 17 18 19 20 21 22 23 24 25 26 27 28 29 30 31 32 33 34 35 36 37 38 39 40 41 42 43 44 45 46 47 48 49 50
000
ASUS43 KGRB 211111
RWRGRB

NORTH-CENTRAL AND NORTHEAST WISCONSIN REGIONAL WEATHER ROUNDUP
NATIONAL WEATHER SERVICE GREEN BAY WI
600 AM CDT THU SEP 21 2017

WIZ005-009-010>012-018-019-211200-
NORTH CENTRAL WISCONSIN

CITY           SKY/WX    TMP DP  RH WIND       PRES   REMARKS
IRONWOOD       PTCLDY    41  41 100 CALM      30.05S FOG
MANITOWISH WTR FOG       41  41 100 CALM      30.05R VSB 1/4
ARBOR VITAE    FOG       49  48  96 CALM      30.04R VSB 1/2
EAGLE RIVER    FOG       47  47 100 CALM      30.05R VSB 1/2
LAND O LAKES   FOG       46  46 100 CALM      30.07R VSB 1
RHINELANDER    CLEAR     54  54 100 CALM      30.05R
PHILLIPS       FOG       45  45 100 CALM      30.03R VSB 1/2
ANTIGO         CLOUDY    57  57 100 N6        30.03S
TOMAHAWK       FOG       46  46  97 CALM      30.05R VSB 1/2
MERRILL        FOG       48  48 100 CALM      30.03S VSB 1/4
$$

WIZ013-073-211200-
NORTHEAST WISCONSIN

CITY           SKY/WX    TMP DP  RH WIND       PRES   REMARKS
IRON MOUNTAIN  CLEAR     57  55  93 CALM      30.02R FOG
MARINETTE      CLOUDY    66  64  93 NE7       30.01R
OCONTO         CLOUDY    67  66  96 NE6       29.99R
$$

WIZ017-030-035>037-045-211200-
CENTRAL WISCONSIN

CITY           SKY/WX    TMP DP  RH WIND       PRES   REMARKS
MEDFORD        CLEAR     49  49  99 NE5       30.02S
WAUSAU         CLEAR     59  58  96 CALM      29.99F
MOSINEE        PTCLDY    61  61 100 N12       30.00F
MARSHFIELD     CLEAR     60  55  83 NE7       29.99S
WISC RAPIDS    CLEAR     62  61  96 NE3       30.00R
STEVENS POINT  CLOUDY    61  61 100 E3        30.01R FOG
WAUPACA        FOG       68  67  98 N5        29.99R VSB 1/2
SHAWANO        MOCLDY    67  66  95 NE9       30.00R
CLINTONVILLE   NOT AVBL
WAUTOMA        CLOUDY    68  68 100 CALM      29.98R FOG
$$

WIZ038-039-048-051-211200-
FOX VALLEY

CITY           SKY/WX    TMP DP  RH WIND       PRES   REMARKS
NWS GREEN BAY  CLOUDY    67  67 100 N8        29.98R
APPLETON       FOG       66  66 100 N8        29.96R VSB 1/2
OSHKOSH        MOCLDY    67  67 100 S5        29.98R
FOND DU LAC    CLOUDY    69  66  90 CALM      29.99R
$$

WIZ022-050-052-211200-
EAST CENTRAL WISCONSIN

CITY           SKY/WX    TMP DP  RH WIND       PRES   REMARKS
EPHRAIM        CLOUDY    65  64  94 N7        29.99R
WASHINGTON ISL CLOUDY    65  64  98 N8        30.00R
STURGEON BAY   MOCLDY    67  66  97 N6        30.00R FOG
MANITOWOC      CLOUDY    67  66  97 CALM      30.00
SHEBOYGAN      MOCLDY    66  66 100 CALM      30.00R
$$

LMZ563-521-522-541>543-211200-
LAKESHORE

STATION/POSITION TIME  TEMP    WIND        PRES    VSBY  WAVE
                       AIR SEA DIR/SP/G                  HT/PER
                 (UTC) (F)     (DEG/KT/KT) (MB)    (MI)  (FT/S)
SHEBOYGAN LKSHOR 1100   68      90/  4/  4 1015.3R
KEWAUNEE LKSHORE 1042   64     310/  2/  3 1014.4R
NORTHPORT PIER   1040   67     360/  6/  7 1015.6R
N MID LAKE BUOY  1050   66 65   50/  6/  8 1015.8R         3/ 6
S GREEN BAY BUOY 1100   68 66   10/  8/ 10 1015.3
SISTER BAY LKSHO 1104   67      80/  8/  9   N/A
MENOMINEE LKSHOR 1042   67     350/  7/  7 1015.5R
$$




USA.gov is the U.S. government's official web portal to all federal, state and local government web resources and services.